Location: Altmatt
(47.1333°N, 8.7000°E)
Time: 01:36:28
(UTC+00:00)

NOSS 3-3 (C) - Pass Details

Date: 13 July 2020
Orbit: 824 x 1388 km, 63.4° (Epoch: 03 August)

Event Time Altitude Azimuth Distance (km) Brightness Sun altitude
Rises 19:59:46 0° 227° (SW) 3,419 6.9 -6.4°
Reaches altitude 10° 20:02:08 10° 229° (SW) 2,529 6.3 -6.7°
Maximum altitude 20:07:58 70° 313° (NW) 1,010 4.4 -7.4°
Drops below altitude 10° 20:14:39 10° 38° (NE) 2,879 6.6 -8.2°
Sets 20:17:30 0° 41° (NE) 3,926 7.2 -8.6°
